PILOTS ONLINE: 304    ATC ONLINE: 32

CYSK

Sanikiluaq Airport

Location

IATA YSK
City Sanikiluaq
Country  Canada
Latitude 56° 32' 16" N
Longitude 79° 14' 48" W
Elevation 104 ft
Type Medium Airport

Map

Weather

METAR
2014/10/02 12:00
CYSK 021200Z 18024G30KT 15SM OVC012 09/07 A2965 RMK SC8 9.5/2.6/M/M SLP042
TAF
No TAF available

Runways

09/27 3800 ft / 0 ft

Outbound flights

Callsign Flying to Pilot ATD/STD ETA Aircraft

Inbound flights

Callsign Flying from Pilot ATD ETA Aircraft